Epoch = 2000 Aug. 4.0 TT T = 2000 July 25.45740 TT Peri. = 244.59401 e = 0.3095096 Node = 98.82438 2000.0 q = 2.0927127 AU Incl. = 18.88557 a = 3.0307629 AU n = 0.18679969 P = 5.28 years
m1 = 17.0 + 5 log d + 8.0 log r